User: anonymous   Login
Location: Caltech
(34.1382°N, 118.1253°W)
Time: 09:42:12
(UTC-07:00)
Language:

NOSS 3-2 (A) - Orbit

View from above orbital plane
View from above orbital plane
View from above satellite
View from above satellite

Ground track
Ground track

The orbit data is extracted from the following two-line orbital elements,

1 28095U 03054A   14298.74951191 0.00000000  00000-0  00000-0 0    00
2 28095  63.4290 255.5091 0218000 358.2848   1.7152 13.41293184    08
Epoch (UTC): 25 October 2014 17:59:17
Eccentricity: 0.0218000
inclination: 63.4290°
perigee height: 941 km
apogee height: 1267 km
right ascension of ascending node: 255.5091°
argument of perigee: 358.2848°
revolutions per day: 13.41293184
mean anomaly at epoch: 1.7152°
orbit number at epoch: 0

The dashed part of the orbit path shows where the satellite is in the earth's shadow,  

DLR